Aérodrome :
LOGIN :

S'inscrire | Disclaimer

   EN    FR    IT 

 










Légende :    VFR   VFR Marginal   IFR   IFR Intensif   IFR Très Intensif
Visi : 
Plafond : 
>= 8 km
>= 3000ft
5 à 8 km
1000 à 3000 ft
1500m à 5 km
500 à 1000 ft
800 à 1500m
200 à 500 ft
< 800m
< 200 ft
Symboles :   Orages  Brouillard  Fortes neiges  Fortes précipitations  Vent > 20 kt
SIGMETs :   Divers  Orages  Givrage  Turbulence  Onde Orograph.  Cendres Volcan.







- Altitude de l'aérodrome : 80 ft
- Code IATA : LPL
- Voir les cartes d'approche


EGGP - Liverpool John Lennon

DERNIER METAR :
  • 102320Z 16004KT 120V190 9999 OVC048 07/05 Q1026

METARs EXPIRÉS :
  • 102250Z VRB03KT 9999 OVC048 07/05 Q1026
  • 102220Z VRB03KT 9999 OVC048 07/05 Q1026
  • 102150Z 14003KT 9999 OVC046 07/06 Q1027
  • 102120Z 17003KT 9999 FEW030 07/06 Q1027
  • 102050Z 13003KT 9999 FEW030 07/06 Q1026

TAF TAF EGGP
Valide du 11 à 00h jusqu'au 12 à 00h UTC


102303Z 1100/1124 14004KT 9999 SCT025
TEMPO 1102/1114 BKN012
PROB30
TEMPO 1105/1114 6000 -RADZ BKN005
PROB30
TEMPO 1114/1124 8000 BKN014
ATIS : +44 151 907 2000 (option 5 or ext 5150)
Météo : +44 871 750 5150
Pas de NOTAMs connus pour ce terrain.



MET'MAP, la Météo Aéronautique d'un coup d'oeil ! - Copyright ORBIFLY Décembre 2007 - Disclaimer

ORBIFLY MET'MAP TEAM :

Programmation & Développement : Alexandra Zaïnal
Conception & Développement : Baudouin d'Aumeries
Co-Programmation & Développement : Marc-Olivier Méhu
Soutien technique & logistique : Manuel Goepfert

Contact : metmap@orbifly.com




SOURCES & CREDITS :

   NOAA